CAPE
1683 1431 1441 1467 25 28 92 161 247 78 29 90 26 21 25 63 70 77 144 199 376 786 1121 1505 2377 2272 2261 2503 2497 2196 2192 2154 2647 2654 2490 2083 2101 2430 2285 2235 2380 2177 2180 1869 2138 2061 1927 2056 1999
2034 1956 1878 1645 0 14 96 234 313 468 382 249 460 227 104 67 64 137 195 336 621 971 1219 1548 2347 2451 2306 2247 2441 2392 1948 2135 2271 2156 2228 2031 2252 2417 2497 2552 2388 2279 2107 2104 2069 2100 2240 2102 2235
2312 2244 1627 57 30 62 191 570 687 644 415 706 782 369 105 69 169 160 240 552 910 1033 1195 1626 2438 2374 2133 2297 2299 2289 2066 1994 2064 2053 2239 2261 2362 2291 2343 2238 2397 2189 1883 1778 2251 2150 2155 1848 2005
2249 2188 629 73 120 176 473 522 599 583 659 695 223 84 147 169 138 143 364 685 1104 1176 1352 2015 1937 1619 1630 2023 2194 2111 2175 2165 2116 2032 2029 2159 2240 2256 2433 1919 1755 2144 1876 2012 2171 2192 2310 1900 1871
1703 840 49 118 297 628 770 635 653 838 814 642 380 513 485 421 132 203 402 834 1193 1263 1608 1711 2256 1783 1527 1682 1980 1953 1964 2107 2129 2025 2054 2167 2102 2206 2367 1755 1230 2052 2216 2138 2095 2145 1966 1757 1682
430 26 28 121 349 666 831 715 966 974 684 477 523 557 473 114 141 252 512 966 1272 1547 1793 1492 1672 1601 1898 2112 2154 1958 1925 2021 2062 1976 2032 2441 2028 2036 2211 1731 1390 1193 1506 1890 2122 1503 1130 1241 1258
153 0 33 66 166 868 928 865 820 697 666 495 702 637 429 75 180 456 856 1344 1373 1251 1604 1303 1176 1194 1627 2295 2254 2005 1950 1831 1723 2296 2116 2010 1883 1875 1979 2006 1786 1328 963 1325 1551 1334 1579 1659 1814
294 32 39 78 62 281 794 859 723 824 654 532 546 466 376 419 555 1328 1335 1313 1188 1133 1474 1317 1508 2034 2049 2013 2254 2104 1897 1768 2176 1922 2132 1986 1815 1928 2006 2085 1901 2027 2168 1811 1582 1520 1863 1812 1571
29 21 83 109 163 591 960 784 937 841 620 923 597 786 614 830 1119 1343 1402 1245 1179 1125 1465 1698 1865 1908 1730 1758 1653 1928 1711 1682 2138 1516 1601 1604 955 829 1110 1246 1599 1514 1353 1453 1427 1478 1382 1255 1296
31 44 71 161 231 936 1126 977 847 927 826 793 813 885 914 839 995 1208 1162 1119 936 956 1378 1631 1731 1720 1620 1851 1557 1501 1289 1339 1472 1040 788 455 205 74 73 439 1114 1055 995 1209 1216 1060 1080 1166 910
33 49 29 143 822 1089 1018 848 747 760 526 412 789 910 848 888 956 911 905 865 722 837 1191 1450 1460 1586 1550 1757 1313 1413 1482 1402 1284 251 163 108 12 4 7 58 132 170 266 291 337 404 538 625 544
33 34 36 780 1046 1070 1142 765 703 740 375 396 669 812 806 846 922 893 890 839 659 814 829 1160 1251 1310 1309 1371 1170 1286 1314 1256 1167 449 138 73 10 4 1 3 37 80 80 65 0 19 17 0 48
29 42 83 537 1028 1065 1138 1018 1041 638 628 525 536 686 753 733 742 764 742 745 599 583 718 761 1022 1220 1044 905 818 742 737 770 855 484 120 27 15 12 4 7 10 2 0 0 1 0 0 18 220
21 41 180 605 966 1173 1243 1163 946 748 829 735 584 517 515 521 590 659 627 578 674 567 642 586 715 921 945 932 785 497 618 607 547 598 260 73 16 30 32 33 25 6 4 3 4 4 112 166 166
0 24 160 562 910 1105 1028 945 993 760 959 907 752 581 544 491 458 434 362 252 449 510 570 591 627 726 776 791 824 613 230 388 433 314 215 152 89 52 15 7 26 39 22 12 69 123 171 167 176
27 20 52 332 670 1063 332 407 1004 836 896 896 850 727 706 599 522 445 348 253 191 208 477 458 521 652 745 710 660 680 162 244 167 107 59 85 188 182 116 16 21 23 50 71 148 169 167 180 203
55 32 19 181 427 847 646 403 1013 925 843 815 848 825 813 751 681 702 596 429 303 278 256 276 357 510 592 651 625 610 416 278 235 129 119 98 143 234 185 69 72 40 49 128 161 270 168 192 216
0 0 0 108 191 530 661 261 1009 911 779 748 796 831 839 846 879 843 812 683 528 444 381 309 339 317 425 475 515 557 542 482 429 241 195 184 160 184 221 197 199 224 177 146 187 203 218 347 270
0 0 0 0 0 373 377 322 910 942 778 660 733 823 883 860 887 923 859 848 701 461 411 368 313 297 366 423 364 332 313 355 327 257 260 390 361 258 288 321 353 333 378 416 319 236 429 493 272
0 0 2 7 2 239 265 381 806 948 800 720 701 761 804 747 765 782 837 795 730 584 496 419 364 342 438 418 364 326 357 453 466 526 628 564 377 409 575 516 645 449 402 522 497 500 762 331 184
0 1 7 1 0 125 164 239 736 795 795 734 702 731 746 761 705 587 571 704 718 717 523 531 433 373 375 445 508 564 673 813 960 975 1072 1087 820 662 615 693 675 464 461 543 628 649 654 515 323
1 7 0 0 0 4 24 3 231 640 740 760 716 703 697 675 637 651 583 535 627 689 570 586 627 510 422 420 470 768 864 869 934 1541 1813 1760 1663 1265 1044 866 747 622 427 629 536 719 820 694 622
16 4 1 0 0 0 28 0 0 287 628 748 760 789 748 777 483 518 242 226 496 582 580 601 622 447 550 410 462 544 858 1076 1840 2030 1942 1519 1090 983 1022 1180 1328 1174 971 791 506 530 863 816 716
22 1 0 0 0 0 0 0 4 328 341 536 687 678 714 725 615 329 59 182 521 923 662 738 1088 988 1019 646 634 767 1288 1455 2499 1872 1690 1405 1194 1022 1194 1092 1209 1247 1054 909 617 617 820 777 646
23 10 2 0 0 0 0 0 6 63 268 361 440 642 591 553 557 356 194 74 241 666 713 692 676 568 403 606 245 725 1691 2813 2195 1716 1462 875 782 778 771 932 1033 1101 1148 1123 941 746 741 697 742
32 22 2 0 0 0 1 0 37 36 287 477 719 660 583 526 452 407 257 195 312 479 759 517 340 202 54 279 2 895 2014 1969 1040 968 674 519 579 679 737 762 642 937 1064 1201 1191 1166 1303 1488 1285
16 19 8 0 1 2 8 148 183 106 457 475 746 807 639 556 518 392 427 247 233 165 305 250 110 4 20 41 299 805 1392 1192 1091 947 673 542 486 494 341 434 483 530 589 669 682 816 947 1161 1165
30 22 37 9 7 17 96 107 134 117 311 421 488 588 655 624 476 317 425 353 248 92 101 153 77 42 56 232 237 627 644 455 413 439 496 483 517 516 514 503 459 517 538 568 620 580 555 493 647
25 17 38 26 35 11 28 27 154 159 372 397 480 577 639 682 649 723 250 286 160 96 102 120 47 0 7 47 53 214 200 185 190 186 83 85 62 70 62 123 432 148 209 515 659 516 567 582 571
0 16 28 30 13 26 19 17 262 430 578 592 697 765 895 874 896 658 423 401 282 126 161 47 1 18 13 40 125 175 142 134 131 158 198 90 0 0 0 0 0 0 0 0 0 0 228 512 450
CIN
-97 -130 -120 -116 -77 -30 -41 -31 -101 -9 -64 -90 -105 -98 -156 -140 -68 -65 -87 -69 -41 -10 -4 -3 0 0 0 0 0 0 0 0 0 0 0 0 0 0 0 0 0 0 0 0 0 0 0 0 0
-104 -108 -100 -121 0 -20 -31 -31 -73 -93 -62 -98 -54 -119 -146 -66 -189 -117 -98 -69 -32 -13 -4 -2 0 0 0 0 0 0 0 0 0 0 0 0 0 0 0 0 0 0 0 0 0 0 0 0 0
-113 -103 -112 -90 -80 -32 -24 -67 -90 -97 -83 -27 -28 -108 -76 -83 -124 -117 -125 -51 -13 -18 -8 -1 0 0 0 0 0 0 0 0 0 0 0 0 0 0 0 0 0 0 0 0 0 0 0 0 0
-146 -117 -206 -67 -39 -5 -58 -101 -112 -97 -55 -31 -67 -101 -158 -86 -111 -141 -114 -40 -4 -7 -7 0 0 0 0 0 0 0 0 0 0 0 -3 0 0 0 0 0 0 0 0 0 0 0 0 0 0
-201 -177 -151 -55 -31 -44 -87 -99 -104 -76 -85 -75 -113 -67 -74 -65 -108 -189 -111 -28 -8 -3 -1 -1 0 0 -1 0 0 -2 -3 -1 0 0 -2 0 0 0 0 -1 -5 0 0 0 0 0 0 0 -1
-145 -117 -108 -69 -44 -54 -76 -36 -61 -86 -109 -104 -105 -92 -70 -98 -137 -131 -73 -13 -12 -1 0 -1 0 0 0 0 0 0 -1 0 0 0 0 0 0 0 0 0 -3 -2 0 0 0 -1 -5 -4 -3
-155 0 -146 -87 -57 -50 -73 -53 -83 -107 -103 -114 -96 -84 -79 -200 -171 -94 -28 -3 -3 -8 -1 -1 -9 -13 0 0 0 0 0 0 0 0 0 -1 -1 0 0 0 0 -1 -4 0 0 -1 0 0 0
-152 -140 -104 -53 -53 -61 -99 -84 -91 -75 -95 -126 -141 -141 -120 -104 -57 -3 -2 -2 -4 -19 -2 -10 -2 0 -1 -1 0 0 0 0 0 0 0 0 -1 0 0 0 -1 0 0 0 0 0 0 -1 -4
-40 -43 -67 -55 -31 -77 -116 -115 -91 -55 -120 -61 -125 -72 -152 -86 -18 0 0 0 -1 -13 -2 -2 -1 -1 -4 -2 -3 -1 0 -1 0 -2 -1 -2 -16 -18 -11 -11 -1 0 0 0 0 0 -4 -10 -11
-27 -33 -77 -45 -64 -117 -122 -98 -132 -121 -78 -83 -131 -123 -98 -99 -58 -27 -27 -31 -48 -44 -3 -1 -1 -1 -2 -2 -2 -1 -22 -6 -1 -3 -10 -21 -30 -50 -51 -23 -2 0 0 0 0 -3 -7 -8 -44
-25 -34 -63 -51 -168 -187 -172 -184 -174 -173 -184 -226 -159 -126 -92 -81 -58 -78 -88 -105 -144 -89 -21 -3 -2 -2 -2 -1 -2 -1 -1 -1 -1 -38 -41 -47 -140 -45 -113 -30 -14 -13 -16 -24 -50 -32 -30 -25 -62
-38 -46 -61 -185 -156 -211 -183 -236 -162 -176 -227 -284 -194 -149 -125 -97 -84 -86 -99 -118 -158 -116 -92 -35 -19 -7 -15 -25 -26 -11 -2 -2 -2 -17 -50 -63 -104 -56 -62 -49 -31 -21 -29 -37 0 -95 -71 0 -179
-124 -26 -86 -159 -181 -176 -214 -206 -192 -236 -250 -251 -216 -149 -126 -118 -98 -81 -75 -69 -111 -132 -127 -110 -60 -29 -43 -35 -37 -40 -37 -38 -29 -31 -74 -140 -42 -63 -21 -48 -59 -22 0 0 -57 0 0 -103 -101
-132 -122 -169 -187 -164 -207 -220 -241 -208 -234 -219 -208 -202 -201 -176 -146 -124 -105 -113 -103 -88 -105 -126 -131 -110 -102 -66 -36 -52 -64 -57 -59 -51 -40 -56 -90 -44 -12 -27 -7 -3 -21 -18 -18 -17 -16 -103 -87 -93
-21 -58 -146 -166 -172 -229 -243 -200 -232 -260 -220 -212 -191 -204 -203 -188 -157 -132 -120 -135 -116 -106 -89 -116 -164 -151 -120 -95 -68 -64 -96 -78 -63 -67 -63 -59 -64 -46 -52 -49 -11 0 -6 -52 -86 -66 -67 -67 -68
-104 -142 -133 -139 -202 -261 -137 -159 -268 -290 -279 -246 -224 -218 -220 -240 -245 -164 -138 -40 -39 -139 -127 -118 -139 -156 -136 -129 -118 -86 -52 -36 -27 -24 -35 -44 -55 -33 -35 -43 -50 -9 -9 -26 -37 -31 -37 -38 -30
-81 -52 -62 -101 -136 -220 -212 -220 -278 -297 -306 -274 -252 -244 -217 -170 -173 -172 -145 -108 -61 -66 -100 -116 -155 -139 -143 -154 -146 -105 -77 -69 -71 -70 -65 -45 -67 -61 -47 -8 -13 -17 -74 -42 -21 -8 -11 -26 -20
0 0 0 -53 -80 -182 -202 -180 -292 -321 -327 -303 -279 -245 -222 -158 -124 -134 -134 -109 -113 -117 -94 -106 -117 -144 -167 -133 -183 -166 -133 -102 -73 -63 -52 -53 -60 -52 -77 -51 -35 -13 -11 -36 -20 -9 -11 -4 -24
0 0 0 0 0 -145 -130 -131 -285 -321 -328 -329 -310 -236 -209 -179 -143 -102 -92 -121 -112 -79 -67 -92 -71 -61 -260 -223 -225 -212 -196 -68 -63 -44 -24 -42 -54 -63 -66 -57 -41 -61 -23 -5 -5 -6 0 -12 -32
0 0 -3 -3 -5 -168 -132 -117 -289 -294 -331 -307 -255 -229 -192 -155 -134 -81 -71 -78 -96 -100 -67 -75 -64 -74 -253 -217 -59 -38 -192 -38 -26 -24 -37 -50 -10 -50 -34 -56 -41 -57 -48 -25 -11 -2 0 -22 -43
0 -2 -3 -2 0 -150 -110 -75 -321 -294 -287 -295 -227 -193 -146 -95 -51 -86 -38 -35 -40 -72 -44 -61 -59 -47 -42 -135 -266 -134 -103 -68 -74 -68 -11 -14 -32 -54 -38 -65 -56 -96 -64 -47 -22 -6 -5 -7 -27
-12 -4 0 0 0 -37 -161 -34 -273 -301 -285 -254 -228 -168 -125 -115 -420 -318 -253 -146 -44 -52 -59 -66 -32 -36 -53 -53 -99 -183 -109 -70 -111 -2 -6 -9 -13 -19 -43 -60 -72 -66 -32 -66 -52 -27 -6 -3 -2
-6 -33 -28 0 0 0 -156 0 -1 -289 -280 -260 -200 -140 -308 -425 -280 -164 -332 -385 -150 -66 -52 -36 -46 -56 -47 -69 -61 -66 -39 -35 -1 -4 -13 -8 -10 -3 -22 -46 -32 -25 -48 -73 -67 -51 -25 -22 -22
-15 -2 0 0 0 0 0 -6 -71 -167 -214 -243 -200 -160 -129 -98 -69 -50 -46 -290 -136 -155 -124 -229 -168 -168 -140 -78 -33 -105 -29 -11 0 -5 -9 -5 -16 -28 -15 -19 -23 -33 -30 -38 -61 -54 -34 -28 -50
-13 -3 -4 0 0 0 0 0 -97 -130 -123 -112 -157 -413 -110 -116 -79 -65 -63 -353 -160 -150 -148 -53 -75 -31 -138 -26 -65 -28 -7 0 -3 -10 -28 -67 -90 -53 -43 -31 -28 -30 -23 -18 -29 -35 -43 -33 -27
-19 -7 -3 0 0 0 -23 -4 -84 -241 -646 -563 -504 -402 -283 -232 -60 -60 -49 -81 -124 -197 -153 -91 -144 -64 -48 -94 -1 -1 -15 -14 -69 -67 -78 -97 -67 -48 -29 -24 -21 -14 -25 -32 -28 -33 -17 -4 -6
-10 -11 -8 0 -3 -3 -56 -218 -366 -271 -599 -595 -431 -312 -217 -92 -72 -72 -257 -318 -90 -163 -173 -107 -60 -212 -311 -426 -2 -2 -14 -50 -47 -47 -52 -43 -56 -59 -72 -47 -34 -23 -29 -25 -30 -47 -37 -28 -16
-4 -6 -5 -2 -2 -7 -120 -111 -86 -115 -585 -502 -340 -304 -163 -152 -120 -114 -229 -205 -220 -270 -251 -139 -131 -621 -421 -40 -56 -2 -21 -66 -63 -67 -62 -51 -42 -38 -31 -26 -14 -15 -13 -15 -20 -19 -23 -35 -50
-4 -4 -2 -3 -3 -5 -22 -56 -106 -108 -600 -497 -281 -159 -133 -307 -388 -298 -319 -176 -156 -121 -101 -60 -236 0 -110 -139 -198 -47 -82 -104 -49 -49 -56 -39 -27 -106 -26 -107 -18 -37 -33 -9 -5 -8 -7 -9 -8
-1 -5 -4 -3 -3 -9 -33 -35 -161 -205 -574 -456 -213 -239 -336 -301 -286 -287 -112 -215 -84 -168 -67 -108 -27 -107 -319 -282 -133 -93 -130 -75 -33 -39 -21 -56 0 0 0 0 0 0 0 0 0 -8 -31 -8 -9
Wind_Speed
21 20 18 17 nan nan nan 18 18 nan nan nan nan nan nan nan nan nan 9 2 3 3 4 12 13 10 12 12 12 12 12 13 11 13 12 13 13 11 12 10 7 4 6 8 8 10 12 11 9
23 24 19 17 nan nan nan 19 21 17 16 11 8 9 5 nan nan 2 4 5 2 4 5 9 10 9 12 12 11 10 13 12 14 13 11 10 11 10 12 10 8 3 6 6 9 11 13 12 11
29 27 16 nan nan nan 22 21 19 17 22 14 12 7 7 nan 3 3 3 1 4 5 7 9 14 13 12 12 10 11 13 13 12 10 11 15 10 9 12 11 9 6 4 5 7 10 13 13 13
27 23 22 nan 21 22 25 22 17 17 16 8 9 nan 6 9 6 3 2 4 5 6 4 10 15 14 11 10 10 12 12 11 12 15 13 15 16 16 14 12 10 9 5 5 5 8 11 11 12
23 26 nan 24 22 21 21 23 21 18 16 11 9 8 7 8 5 6 1 3 4 5 4 6 12 12 10 10 11 11 11 11 13 14 15 14 19 15 13 13 11 8 9 5 5 7 8 9 11
27 nan nan 24 22 21 22 23 20 15 15 15 7 8 10 9 12 5 3 2 1 4 4 4 11 11 9 9 9 8 11 12 15 17 16 13 16 13 14 12 12 10 8 7 6 6 5 7 9
25 nan nan nan 25 23 27 27 25 23 21 13 11 8 8 nan 9 2 1 1 1 1 1 2 3 6 9 9 11 10 11 13 16 16 17 14 18 14 11 10 11 12 11 8 9 8 7 4 5
25 nan nan nan nan 22 27 27 28 25 21 20 21 16 16 15 11 3 5 1 1 2 2 1 1 4 6 5 9 11 10 11 14 15 16 17 17 15 12 8 12 9 12 11 10 9 7 3 2
nan nan nan 28 28 25 26 26 22 22 26 25 20 19 19 15 9 4 4 3 4 6 5 5 4 4 6 5 5 8 9 9 12 14 16 11 2 3 3 6 9 10 10 11 9 9 6 6 6
nan nan nan 28 26 27 27 24 22 23 25 23 18 23 26 22 17 16 15 11 9 9 7 4 2 2 3 3 4 6 4 7 7 7 3 1 4 nan nan 7 11 12 12 9 8 7 5 4 4
nan nan nan 24 25 25 27 26 26 26 30 30 32 31 30 28 23 16 15 14 15 9 7 6 5 5 6 5 6 4 6 4 2 3 6 3 nan nan nan nan 3 3 3 5 3 3 2 2 3
nan nan nan 19 23 24 24 23 27 30 31 26 31 30 26 30 30 22 18 15 13 12 13 12 10 9 8 5 6 4 2 1 3 5 5 nan nan nan nan nan nan nan nan nan nan nan nan nan nan
nan nan nan 15 21 24 23 23 26 27 28 29 31 30 26 27 26 20 17 15 13 15 16 14 11 8 12 5 9 9 7 6 3 7 7 nan nan nan nan nan nan nan nan nan nan nan nan nan 3
nan nan 18 16 22 22 23 28 26 30 33 35 39 33 19 21 20 15 18 18 16 18 17 14 19 20 14 13 17 6 4 5 6 5 7 nan nan nan nan nan nan nan nan nan nan nan 9 3 3
nan nan 22 22 20 18 18 22 27 33 38 37 39 42 22 20 17 20 19 22 18 17 19 19 20 21 18 17 14 9 7 6 6 7 7 9 nan nan nan nan nan nan nan nan nan 6 5 2 6
nan nan nan 26 20 22 15 22 24 33 38 38 39 46 31 27 25 19 19 18 19 19 23 20 19 19 19 16 11 9 12 9 7 6 nan nan 12 12 10 nan nan nan nan nan 7 4 4 3 5
nan nan nan 18 22 17 13 18 22 28 35 37 42 34 33 24 21 18 18 18 19 24 25 24 21 17 17 14 7 10 12 11 9 7 3 nan 7 10 11 nan nan nan nan 11 12 9 7 7 5
nan nan nan 17 15 17 15 17 22 27 31 37 40 28 34 38 21 22 23 19 17 17 19 16 19 19 11 8 6 5 7 8 6 1 1 3 7 9 9 9 10 10 12 13 11 12 10 11 7
nan nan nan nan nan 10 19 13 23 27 27 33 37 36 31 35 28 12 14 14 18 17 14 15 16 15 13 8 6 6 7 1 3 8 6 10 6 4 5 9 12 13 16 18 15 13 14 10 11
nan nan nan nan nan 11 10 13 18 27 32 31 34 32 29 19 16 10 3 6 7 12 13 11 12 10 10 9 6 5 6 10 9 11 17 6 5 9 5 10 12 12 14 18 18 18 11 12 14
nan nan nan nan nan 6 6 6 14 21 26 28 28 20 19 21 25 21 2 13 6 4 5 8 5 5 4 4 5 7 8 11 16 20 19 23 21 18 21 22 10 9 12 16 18 19 18 14 14
nan nan nan nan nan nan nan nan 13 19 26 21 25 23 22 33 37 43 33 10 5 14 17 10 6 11 10 5 5 6 7 7 11 14 17 18 20 19 19 16 15 11 8 13 16 18 17 17 18
nan nan nan nan nan nan nan nan nan 14 17 23 24 25 27 33 34 38 42 35 12 23 20 22 20 15 15 11 10 5 8 10 9 13 14 16 17 16 16 18 13 13 13 8 11 15 20 20 18
nan nan nan nan nan nan nan nan nan 17 17 13 17 19 33 36 31 25 nan 32 33 22 27 35 39 35 24 26 9 3 8 7 7 12 17 18 19 21 21 17 17 15 15 14 10 13 18 18 17
nan nan nan nan nan nan nan nan nan nan 12 17 21 24 29 35 27 25 25 nan 31 20 22 39 44 44 29 38 34 15 3 10 13 17 22 23 23 24 25 24 22 23 22 17 19 16 13 13 12
nan nan nan nan nan nan nan nan nan nan 12 14 18 25 29 26 28 30 30 28 24 20 38 34 40 47 nan 40 nan 13 8 11 15 20 19 23 23 28 28 31 28 28 26 26 22 22 19 14 13
nan nan nan nan nan nan nan 12 9 15 20 23 29 27 32 20 27 35 27 9 17 27 22 54 23 nan nan nan 9 5 7 14 19 21 24 25 27 30 29 29 30 31 32 29 27 25 24 21 16
nan nan nan nan nan nan nan 18 14 14 16 23 25 26 20 12 21 23 23 21 13 nan 14 6 nan nan nan 13 11 6 10 16 19 23 27 29 32 33 32 30 29 30 31 33 32 28 27 27 24
nan nan nan nan nan nan nan nan 15 16 20 25 24 19 10 7 8 17 21 15 13 nan 13 13 nan nan nan nan nan 12 17 21 22 24 nan nan nan nan nan 31 30 30 28 28 34 32 31 30 28
nan nan nan nan nan nan nan nan 14 17 27 29 26 21 13 14 17 20 18 20 15 14 19 nan nan nan nan nan 21 18 23 21 21 25 28 nan nan nan nan nan nan nan nan nan nan nan 30 31 30
Wind_Direction
12 22 42 51 nan nan nan 67 64 nan nan nan nan nan nan nan nan nan 121 33 258 218 180 282 278 295 288 287 287 296 307 313 310 327 337 327 324 317 319 334 358 332 291 305 299 292 289 287 282
44 34 44 45 nan nan nan 68 64 61 45 0 44 50 114 nan nan 216 152 100 258 270 240 268 335 310 289 283 285 297 308 316 331 346 345 347 332 315 314 333 339 322 274 283 288 286 283 279 277
40 56 61 nan nan nan 63 67 54 41 39 57 58 103 66 nan 134 18 110 263 219 231 242 280 308 305 290 293 287 292 306 326 338 347 341 346 345 312 319 319 325 307 282 277 272 278 278 284 279
61 70 71 nan 52 56 54 58 55 48 68 65 13 nan 85 60 19 74 284 250 241 233 231 299 301 300 294 293 286 298 302 318 333 343 351 351 352 336 325 312 317 314 313 274 270 275 279 289 285
65 70 nan 52 50 56 55 48 51 62 55 46 60 69 67 62 328 309 205 199 266 238 219 274 303 304 302 306 298 308 306 326 331 337 336 345 337 333 329 315 314 317 305 291 288 276 282 291 285
69 nan nan 58 46 50 53 44 50 46 45 32 32 45 74 38 320 334 160 154 332 301 267 292 317 317 308 320 306 307 320 330 326 331 328 331 346 328 330 323 316 327 315 313 300 293 284 277 273
54 nan nan nan 38 37 47 48 48 46 27 36 38 40 58 nan 10 324 233 272 34 129 274 255 278 316 331 329 325 323 328 329 333 331 328 319 319 323 326 326 334 335 338 326 320 317 291 274 263
60 nan nan nan nan 47 42 54 43 45 38 30 14 23 30 49 33 81 137 110 76 88 94 326 275 269 257 272 319 328 331 340 334 323 320 328 321 318 312 334 350 344 346 337 328 336 340 354 348
nan nan nan 54 56 49 43 52 58 49 37 40 33 27 356 0 353 10 26 93 104 65 49 25 359 320 296 294 302 330 337 349 322 323 328 309 326 42 7 4 358 357 358 352 344 349 358 7 7
nan nan nan 54 50 51 48 56 47 47 45 41 15 5 358 1 5 2 6 18 35 42 36 33 20 339 312 279 243 267 267 277 304 321 302 122 74 nan nan 349 356 7 10 3 360 3 11 24 351
nan nan nan 60 46 40 45 50 52 35 47 37 16 8 7 11 16 13 14 22 24 24 23 16 356 314 298 269 244 225 239 243 252 94 120 78 nan nan nan nan 268 302 349 330 327 311 289 323 359
nan nan nan 52 42 48 42 43 44 52 45 20 14 4 13 14 22 26 31 23 16 16 20 17 357 339 350 293 244 211 163 250 118 94 76 nan nan nan nan nan nan nan nan nan nan nan nan nan nan
nan nan nan 52 45 45 39 46 42 43 27 16 9 8 12 20 30 45 48 43 41 41 28 25 6 25 41 57 168 174 49 84 75 74 53 nan nan nan nan nan nan nan nan nan nan nan nan nan 206
nan nan 90 71 59 58 34 40 39 29 12 15 17 12 22 29 39 42 32 28 50 56 48 26 38 55 47 87 145 163 102 85 75 63 33 nan nan nan nan nan nan nan nan nan nan nan 330 181 188
nan nan 91 76 70 63 19 51 31 22 16 21 25 24 31 41 34 41 36 40 59 57 46 33 31 45 59 70 95 93 72 35 34 23 16 25 nan nan nan nan nan nan nan nan nan 347 354 215 189
nan nan nan 77 60 50 48 46 36 13 11 25 26 17 39 34 30 26 28 42 41 41 39 35 32 39 48 60 70 77 69 60 60 46 nan nan 38 40 45 nan nan nan nan nan 342 12 216 300 246
nan nan nan 95 72 60 60 44 30 18 8 19 22 26 27 25 28 19 20 24 26 29 29 34 32 28 42 59 74 82 83 82 69 71 92 nan 60 53 46 nan nan nan nan 37 45 39 21 11 303
nan nan nan 92 78 66 52 62 22 18 12 17 14 16 27 19 40 32 24 19 17 25 26 26 36 43 37 41 57 95 84 93 95 174 234 70 74 71 54 57 61 55 43 46 31 33 12 28 24
nan nan nan nan nan 33 50 30 17 11 13 15 14 4 11 11 26 24 28 19 8 360 14 18 28 44 26 20 49 70 55 341 202 244 295 47 107 57 80 77 50 40 43 42 31 30 24 21 7
nan nan nan nan nan 358 4 23 19 6 15 13 3 6 359 3 329 286 332 339 27 21 358 3 26 28 35 35 23 26 0 355 349 353 49 47 53 62 64 76 69 38 30 31 23 23 11 6 2
nan nan nan nan nan 215 296 63 2 5 0 13 2 3 319 309 312 310 272 227 241 15 1 340 5 2 344 339 348 357 354 346 348 348 1 12 20 35 35 56 62 26 1 2 5 5 2 3 355
nan nan nan nan nan nan nan nan 359 360 1 11 3 0 302 315 322 325 311 273 323 346 321 325 275 248 250 287 310 319 334 342 339 337 342 342 350 3 8 4 4 6 330 344 340 339 345 345 348
nan nan nan nan nan nan nan nan nan 325 344 4 5 342 349 336 343 336 329 349 309 335 307 292 275 258 255 266 265 321 320 327 319 320 319 299 308 315 327 336 339 335 318 315 324 329 335 331 343
nan nan nan nan nan nan nan nan nan 303 326 336 340 358 357 360 350 313 nan 316 322 305 266 270 264 234 233 232 199 77 18 331 318 304 295 291 290 286 281 280 296 299 292 291 292 305 319 328 327
nan nan nan nan nan nan nan nan nan nan 317 337 353 357 358 356 319 289 295 nan 323 289 270 273 273 279 226 222 214 138 232 278 297 292 292 287 288 283 272 270 270 279 282 279 281 273 270 287 296
nan nan nan nan nan nan nan nan nan nan 291 321 316 333 347 356 309 306 303 309 317 9 11 356 288 257 nan 279 nan 140 250 296 299 301 307 298 287 284 274 273 269 266 268 273 275 277 274 269 274
nan nan nan nan nan nan nan 258 246 274 282 297 307 337 348 347 336 352 355 345 17 36 32 35 350 nan nan nan 40 123 271 286 297 298 303 302 295 289 281 277 276 270 268 269 268 271 273 271 263
nan nan nan nan nan nan nan 260 290 283 317 315 326 346 342 337 332 360 5 18 26 nan 42 5 nan nan nan 301 309 319 295 282 287 293 295 297 293 286 284 281 277 275 268 264 270 272 263 265 264
nan nan nan nan nan nan nan nan 301 309 303 314 322 343 338 342 322 328 325 337 347 nan 337 321 nan nan nan nan nan 270 269 277 286 296 nan nan nan nan nan 281 282 279 277 266 265 269 268 262 257
nan nan nan nan nan nan nan nan 271 295 291 300 308 326 313 329 308 312 306 306 322 331 316 nan nan nan nan nan 279 276 268 276 294 296 292 nan nan nan nan nan nan nan nan nan nan nan 263 263 261